This demonstration page uses our WeatherBlox Daily Observations layout. Learn more.

Left ArrowRight Arrow

Hourly Observations for July 26, 2016

Temp ( °F °C ) Dew Point ( °F °C ) Humidity (%) Winds ( mph kmh ) Pressure ( in mb ) Visibility ( mi km ) Precip ( " mm )
12:59 am 00:59 Mostly Cloudy 84 28.9 75 23.9 74 74 SSW 12 19 29.95 1014 9 14 0.00 0.00
1:59 am 01:59 Mostly Cloudy 83 28.3 74 23.3 74 74 SW 13 20 29.94 1014 10 16 0.00 0.00
2:59 am 02:59 Mostly Cloudy 82 27.8 74 23.3 77 77 SW 9 15 29.95 1014 10 16 0.00 0.00
3:59 am 03:59 Mostly Cloudy 82 27.8 73 22.8 74 74 SSW 12 19 29.94 1014 10 16 0.00 0.00
4:59 am 04:59 Mostly Cloudy 81 27.2 73 22.8 77 77 SW 10 17 29.95 1014 10 16 0.00 0.00
5:59 am 05:59 Partly Cloudy 81 27.2 73 22.8 77 77 WSW 9 15 29.95 1014 10 16 0.00 0.00
6:59 am 06:59 Partly Cloudy 81 27.2 73 22.8 77 77 WSW 10 17 29.97 1015 8 13 0.00 0.00
7:59 am 07:59 Mostly Sunny 83 28.3 73 22.8 72 72 WSW 8 13 29.96 1015 9 14 0.00 0.00
8:59 am 08:59 Mostly Sunny 85 29.4 74 23.3 70 70 W 13 20 29.96 1015 8 13 0.00 0.00
9:59 am 09:59 Partly Cloudy 86 30 74 23.3 67 67 W 10 17 29.97 1015 8 13 0.00 0.00
10:59 am 10:59 Partly Cloudy 89 31.7 75 23.9 63 63 WNW 9 15 29.97 1015 8 13 0.00 0.00
11:59 am 11:59 Partly Cloudy 91 32.8 75 23.9 59 59 W 8 13 29.97 1015 7 11 0.00 0.00
12:59 pm 12:59 Partly Cloudy 94 34.4 75 23.9 54 54 VRB 7 11 29.96 1015 7 11 0.00 0.00
1:59 pm 13:59 Partly Cloudy 94 34.4 76 24.4 56 56 VRB 7 11 29.96 1014 7 11 0.00 0.00
2:59 pm 14:59 Partly Cloudy 94 34.4 74 23.3 52 52 VRB 7 11 29.95 1014 8 13 0.00 0.00
3:59 pm 15:59 Mostly Cloudy 93 33.9 75 23.9 56 56 NE 13 20 29.93 1013 8 13 0.00 0.00
4:59 pm 16:59 Mostly Cloudy 91 32.8 76 24.4 61 61 E 9 15 29.92 1013 7 11 0.00 0.00
5:39 pm 17:39 Mostly Cloudy with Thunderstorms 87 30.6 77 25 72 72 ENE 8 13 29.91 1013 6 10 0.00 0.00
5:59 pm 17:59 Mostly Cloudy 87 30.6 77 25 72 72 SE 6 9 29.93 1014 7 11 0.00 0.00
6:59 pm 18:59 Mostly Cloudy 84 28.9 73 22.8 70 70 SSW 10 17 29.94 1014 10 16 0.00 0.00
7:59 pm 19:59 Mostly Cloudy 83 28.3 73 22.8 72 72 SW 3 6 29.93 1014 10 16 0.00 0.00
8:59 pm 20:59 Mostly Cloudy 82 27.8 73 22.8 74 74 Calm 29.95 1014 10 16 0.00 0.00
9:59 pm 21:59 Mostly Cloudy 80 26.7 71 21.7 74 74 VRB 3 6 29.94 1014 10 16 0.00 0.00
10:59 pm 22:59 Mostly Cloudy 80 26.7 72 22.2 76 76 SW 5 7 29.96 1014 10 16 0.00 0.00
11:59 pm 23:59 Mostly Cloudy 82 27.8 73 22.8 74 74 Calm 29.96 1015 10 16 0.00 0.00

Powered by AerisWeather